PP5CFL-2 Weather Reports


time (UTC)temp
C
wind
direction
speed
KPH
gust
KPH
rain 1hr
cm
rain 24hr
cm
rain mn
cm
humidity
%
barometer
mb
20260504202846 25 0.0 0.0 0.00 0.00 0.00 10 1015.4
20260504202346 25 0.0 0.0 0.00 0.00 0.00 10 1015.3
20260504201846 25 0.0 0.0 0.00 0.00 0.00 10 1015.3
20260504201346 25 0.0 0.0 0.00 0.00 0.00 10 1015.3
20260504200846 25 0.0 0.0 0.00 0.00 0.00 10 1015.3
20260504200346 25 0.0 0.0 0.00 0.00 0.00 10 1015.3
20260504195846 25 0.0 0.0 0.00 0.00 0.00 10 1015.3
20260504195346 25 0.0 0.0 0.00 0.00 0.00 10 1015.2
20260504194846 25 0.0 0.0 0.00 0.00 0.00 10 1015.1
20260504194346 25 0.0 0.0 0.00 0.00 0.00 10 1014.9
20260504193846 25 0.0 0.0 0.00 0.00 0.00 10 1014.9
20260504193346 25 0.0 0.0 0.00 0.00 0.00 10 1014.8
20260504192845 25 0.0 0.0 0.00 0.00 0.00 10 1014.9
20260504192346 25 0.0 0.0 0.00 0.00 0.00 10 1014.8
20260504191845 25 0.0 0.0 0.00 0.00 0.00 10 1014.8
20260504191345 25 0.0 0.0 0.00 0.00 0.00 10 1014.8
20260504190845 25 0.0 0.0 0.00 0.00 0.00 10 1014.8
20260504190346 25 0.0 0.0 0.00 0.00 0.00 10 1014.8
20260504185845 25 0.0 0.0 0.00 0.00 0.00 10 1014.8
20260504185345 25 0.0 0.0 0.00 0.00 0.00 10 1014.8
20260504184845 26 0.0 0.0 0.00 0.00 0.00 10 1014.7
20260504184345 26 0.0 0.0 0.00 0.00 0.00 10 1014.7
20260504183845 26 0.0 0.0 0.00 0.00 0.00 10 1014.8
20260504183345 26 0.0 0.0 0.00 0.00 0.00 10 1014.8
20260504182845 26 0.0 0.0 0.00 0.00 0.00 10 1014.7
20260504182345 26 0.0 0.0 0.00 0.00 0.00 10 1014.7
20260504181845 26 0.0 0.0 0.00 0.00 0.00 10 1014.7
20260504181345 26 0.0 0.0 0.00 0.00 0.00 10 1014.7
20260504180845 26 0.0 0.0 0.00 0.00 0.00 10 1014.7
20260504180345 26 0.0 0.0 0.00 0.00 0.00 10 1014.7
20260504175845 26 0.0 0.0 0.00 0.00 0.00 10 1014.7
20260504175345 26 0.0 0.0 0.00 0.00 0.00 10 1014.7
20260504174845 26 0.0 0.0 0.00 0.00 0.00 10 1014.8
20260504174345 26 0.0 0.0 0.00 0.00 0.00 10 1014.8
20260504173846 26 0.0 0.0 0.00 0.00 0.00 10 1014.8
20260504173345 26 0.0 0.0 0.00 0.00 0.00 10 1014.8
20260504172845 26 0.0 0.0 0.00 0.00 0.00 10 1014.8
20260504172345 26 0.0 0.0 0.00 0.00 0.00 10 1015.0
20260504171845 26 0.0 0.0 0.00 0.00 0.00 10 1015.1
20260504171345 26 0.0 0.0 0.00 0.00 0.00 10 1015.1
20260504170845 26 0.0 0.0 0.00 0.00 0.00 10 1015.2
20260504170345 26 0.0 0.0 0.00 0.00 0.00 10 1015.2
20260504160347 26 0.0 0.0 0.00 0.00 0.00 10 1015.8
20260504150845 26 0.0 0.0 0.00 0.00 0.00 97 1016.5
20260504150345 27 0.0 0.0 0.00 0.00 0.00 92 1016.4
20260504140845 28 0.0 0.0 0.00 0.00 0.00 88 1016.1
20260504140345 28 0.0 0.0 0.00 0.00 0.00 91 1016.2
20260504130345 22 0.0 0.0 0.00 0.00 0.00 10 1018.0
20260504110345 19 0.0 0.0 0.00 0.00 0.00 10 1017.9
20260504100340 19 0.0 0.0 0.00 0.00 0.00 10 1017.4
20260504081845 19 0.0 0.0 0.00 0.00 0.00 10 1016.9
20260504081345 19 0.0 0.0 0.00 0.00 0.00 10 1017.0
20260504080845 19 0.0 0.0 0.00 0.00 0.00 10 1017.0
20260504080345 19 0.0 0.0 0.00 0.00 0.00 10 1016.9
20260504070345 19 0.0 0.0 0.00 0.00 0.00 10 1016.3
20260504050345 19 0.0 0.0 0.00 0.00 0.00 10 1017.0
20260504045845 19 0.0 0.0 0.00 0.00 0.00 10 1017.1
20260504045345 19 0.0 0.0 0.00 0.00 0.00 10 1017.2
20260504044845 19 0.0 0.0 0.00 0.00 0.00 10 1017.1
20260504044348 19 0.0 0.0 0.00 0.00 0.00 10 1017.1
20260504043845 19 0.0 0.0 0.00 0.00 0.00 10 1017.2
20260504043345 19 0.0 0.0 0.00 0.00 0.00 10 1017.3
20260504042845 19 0.0 0.0 0.00 0.00 0.00 10 1017.4
20260504042345 19 0.0 0.0 0.00 0.00 0.00 10 1017.5
20260504041845 19 0.0 0.0 0.00 0.00 0.00 10 1017.6
20260504041345 18 0.0 0.0 0.00 0.00 0.00 10 1017.8
20260504040845 18 0.0 0.0 0.00 0.00 0.00 10 1017.9
20260504040345 18 0.0 0.0 0.00 0.00 0.00 10 1018.0
20260504035845 18 0.0 0.0 0.00 0.00 0.00 10 1018.0
20260504035345 18 0.0 0.0 0.00 0.00 0.00 10 1018.1
20260504034845 18 0.0 0.0 0.00 0.00 0.00 10 1018.1
20260504034345 18 0.0 0.0 0.00 0.00 0.00 10 1018.1
20260504033845 18 0.0 0.0 0.00 0.00 0.00 10 1018.2
20260504033345 18 0.0 0.0 0.00 0.00 0.00 10 1018.3
20260504032845 18 0.0 0.0 0.00 0.00 0.00 10 1018.4
20260504032345 18 0.0 0.0 0.00 0.00 0.00 10 1018.4
20260504031845 18 0.0 0.0 0.00 0.00 0.00 10 1018.4
20260504031345 18 0.0 0.0 0.00 0.00 0.00 10 1018.5
20260504030845 18 0.0 0.0 0.00 0.00 0.00 10 1018.5
20260504030345 18 0.0 0.0 0.00 0.00 0.00 10 1018.4
20260504025845 18 0.0 0.0 0.00 0.00 0.00 10 1018.3
20260504025345 18 0.0 0.0 0.00 0.00 0.00 10 1018.4
20260504024845 18 0.0 0.0 0.00 0.00 0.00 10 1018.4
20260504024345 18 0.0 0.0 0.00 0.00 0.00 10 1018.4
20260504023845 18 0.0 0.0 0.00 0.00 0.00 10 1018.5
20260504023345 18 0.0 0.0 0.00 0.00 0.00 10 1018.7
20260504022845 18 0.0 0.0 0.00 0.00 0.00 10 1018.7
20260504022345 18 0.0 0.0 0.00 0.00 0.00 10 1018.7
20260504021845 18 0.0 0.0 0.00 0.00 0.00 10 1018.8
20260504021345 18 0.0 0.0 0.00 0.00 0.00 10 1018.8
20260504020845 18 0.0 0.0 0.00 0.00 0.00 10 1018.9
20260504020345 18 0.0 0.0 0.00 0.00 0.00 10 1018.9
20260504015845 18 0.0 0.0 0.00 0.00 0.00 10 1018.9
20260504015345 18 0.0 0.0 0.00 0.00 0.00 10 1018.9
20260504014845 18 0.0 0.0 0.00 0.00 0.00 10 1018.9
20260504014345 18 0.0 0.0 0.00 0.00 0.00 10 1018.8
20260504013845 18 0.0 0.0 0.00 0.00 0.00 10 1018.8
20260504013345 18 0.0 0.0 0.00 0.00 0.00 10 1018.7
20260504012844 18 0.0 0.0 0.00 0.00 0.00 10 1018.8
20260504012344 18 0.0 0.0 0.00 0.00 0.00 10 1018.8
20260504011845 18 0.0 0.0 0.00 0.00 0.00 10 1018.8
20260504011345 18 0.0 0.0 0.00 0.00 0.00 10 1018.8
20260504010845 19 0.0 0.0 0.00 0.00 0.00 10 1018.7
20260504010345 18 0.0 0.0 0.00 0.00 0.00 10 1018.8
20260504005845 18 0.0 0.0 0.00 0.00 0.00 10 1018.8
20260504005344 18 0.0 0.0 0.00 0.00 0.00 10 1018.9
20260504004844 19 0.0 0.0 0.00 0.00 0.00 10 1018.9
20260504004344 20 0.0 0.0 0.00 0.00 0.00 10 1018.7
20260504003844 20 0.0 0.0 0.00 0.00 0.00 10 1018.6
20260504003344 20 0.0 0.0 0.00 0.00 0.00 10 1018.8
20260504002844 19 0.0 0.0 0.00 0.00 0.00 10 1019.0
20260504002345 19 0.0 0.0 0.00 0.00 0.00 10 1019.0
20260504001845 19 0.0 0.0 0.00 0.00 0.00 10 1019.0
20260504001345 19 0.0 0.0 0.00 0.00 0.00 10 1019.0
20260504000844 19 0.0 0.0 0.00 0.00 0.00 10 1019.0
20260504000346 19 0.0 0.0 0.00 0.00 0.00 10 1019.0
20260503235846 19 0.0 0.0 0.00 0.00 0.00 10 1019.0
20260503235345 19 0.0 0.0 0.00 0.00 0.00 10 1018.9
20260503234844 19 0.0 0.0 0.00 0.00 0.00 10 1019.0
20260503234344 19 0.0 0.0 0.00 0.00 0.00 10 1018.8
20260503233845 20 0.0 0.0 0.00 0.00 0.00 10 1018.9
20260503233344 20 0.0 0.0 0.00 0.00 0.00 10 1018.7
20260503232844 20 0.0 0.0 0.00 0.00 0.00 10 1018.6
20260503232344 20 0.0 0.0 0.00 0.00 0.00 10 1018.5
20260503231844 20 0.0 0.0 0.00 0.00 0.00 10 1018.7
20260503231345 20 0.0 0.0 0.00 0.00 0.00 10 1018.6
20260503230845 20 0.0 0.0 0.00 0.00 0.00 10 1018.6
20260503230344 20 0.0 0.0 0.00 0.00 0.00 10 1018.4
20260503225844 20 0.0 0.0 0.00 0.00 0.00 10 1018.6
20260503225352 20 0.0 0.0 0.00 0.00 0.00 10 1018.5
20260503224844 20 0.0 0.0 0.00 0.00 0.00 10 1018.4
20260503224344 20 0.0 0.0 0.00 0.00 0.00 10 1018.4
20260503223844 20 0.0 0.0 0.00 0.00 0.00 10 1018.5
20260503223344 21 0.0 0.0 0.00 0.00 0.00 10 1018.3
20260503222844 20 0.0 0.0 0.00 0.00 0.00 10 1018.4
20260503222344 21 0.0 0.0 0.00 0.00 0.00 10 1018.1
20260503221844 21 0.0 0.0 0.00 0.00 0.00 10 1018.3
20260503221344 21 0.0 0.0 0.00 0.00 0.00 10 1018.1
20260503220844 21 0.0 0.0 0.00 0.00 0.00 10 1018.2
20260503220344 21 0.0 0.0 0.00 0.00 0.00 10 1018.1
20260503215844 21 0.0 0.0 0.00 0.00 0.00 10 1018.3
20260503215344 21 0.0 0.0 0.00 0.00 0.00 99 1018.3
20260503214844 21 0.0 0.0 0.00 0.00 0.00 10 1018.2
20260503214344 21 0.0 0.0 0.00 0.00 0.00 99 1018.2
20260503213844 21 0.0 0.0 0.00 0.00 0.00 98 1018.2
20260503213344 21 0.0 0.0 0.00 0.00 0.00 99 1018.1
20260503212844 21 0.0 0.0 0.00 0.00 0.00 99 1018.1
20260503212344 21 0.0 0.0 0.00 0.00 0.00 97 1018.1
20260503211844 20 0.0 0.0 0.00 0.00 0.00 96 1018.0
20260503211344 21 0.0 0.0 0.00 0.00 0.00 95 1017.9
20260503210844 20 0.0 0.0 0.00 0.00 0.00 97 1017.9
20260503210344 21 0.0 0.0 0.00 0.00 0.00 94 1017.9
20260503205844 21 0.0 0.0 0.00 0.00 0.00 96 1018.0
20260503205344 21 0.0 0.0 0.00 0.00 0.00 94 1018.0
20260503204844 21 0.0 0.0 0.00 0.00 0.00 94 1018.0
20260503204344 21 0.0 0.0 0.00 0.00 0.00 93 1018.0
20260503203844 21 0.0 0.0 0.00 0.00 0.00 94 1018.0
20260503203344 21 0.0 0.0 0.00 0.00 0.00 93 1018.0